Regional Weather Roundup
Issued by NWS

Home | Current Version | Previous Version | Graphics & Text | Print | Product List | Glossary On
Versions: 1 2 3 4 5 6 7 8 9 10 11 12 13 14 15 16 17 18 19 20 21 22 23 24 25 26 27 28
000
ASUS45 KCYS 252010
RWRWY

WYOMING REGIONAL WEATHER ROUNDUP
NATIONAL WEATHER SERVICE CHEYENNE WY
200 PM MDT WED APR 25 2018

NOTE:  "FAIR" INDICATES FEW OR NO CLOUDS BELOW 12,000 FEET
WITH NO SIGNIFICANT WEATHER AND/OR OBSTRUCTIONS TO VISIBILITY.

WYZ001-252100-
YELLOWSTONE NATIONAL PARK

CITY           SKY/WX    TMP DP  RH WIND       PRES   REMARKS
LK YELLOWSTONE   N/A     49  12  22 VRB7      30.23F
W YELLOWSTONE  NOT AVBL

$$
WYZ002>013-054>058-071-098>099-252100-
NORTHERN WYOMING

CITY           SKY/WX    TMP DP  RH WIND       PRES   REMARKS
JACKSON        FAIR      59  19  21 S14       30.20F
CODY           FAIR      65  13  13 VRB3      30.06F
GREYBULL       FAIR      61  27  27 VRB5      30.04F
WORLAND        FAIR      65  26  23 CALM      30.02F
SHERIDAN       FAIR      72  32  23 N6        29.95F
BUFFALO        FAIR      71  12  10 E6        30.00F
GILLETTE       FAIR      70  19  14 SW18      29.99F
HULETT         FAIR      63  32  31 SW14      30.03F
NEWCASTLE      FAIR      61  27  27 SE13G18   30.06F

$$
WYZ014>020-022>026-101>103-252100-
CENTRAL WYOMING

CITY           SKY/WX    TMP DP  RH WIND       PRES   REMARKS
BIG PINEY      FAIR      55  19  24 VRB6      30.24F
PINEDALE       FAIR      54  14  20 NW3       30.25F
DUBOIS         FAIR      54   9  16 W16G26    30.17F
LANDER         FAIR      61  20  20 VRB3      30.07F
RIVERTON       FAIR      59  19  21 NE5       30.09F
CASPER         FAIR      64  20  18 S23       30.10F
DOUGLAS        FAIR      67  23  19 VRB5      30.08F

$$
WYZ021-027>030-104>119-252100-
SOUTHERN WYOMING

CITY           SKY/WX    TMP DP  RH WIND       PRES   REMARKS
EVANSTON       FAIR      61  17  18 SW16G23   30.24F
KEMMERER       FAIR      59  12  15 SW17G23   30.24F
FORT BRIDGER   FAIR      58  17  19 SW3       30.27F
ROCK SPRINGS   FAIR      60  12  15 W9        30.23F
DIXON          FAIR      59  14  16 S6G17     30.27F
RAWLINS        FAIR      59  13  16 W20       30.21F
SARATOGA       FAIR      57  16  19 S5        30.23F
LARAMIE        FAIR      57  16  20 VRB6      30.19F
CHEYENNE       FAIR      60  24  25 VRB5      30.17F
TORRINGTON     FAIR      63  29  27 MISG      30.10F
PINE BLUFFS    FAIR      61  23  23 S7G16     30.17F

$$




USA.gov is the U.S. government's official web portal to all federal, state and local government web resources and services.